Temp
-7 -7 -6 -6 -6 -6 -6 -6 -6 -6 -6 -6 -6 -6 -6 -6 -6 -6 -6 -7 -7 -7 -7 -7 -7 -7 -7 -7 -6 -7 -7 -8 -9 -9 -9 -9 -9 -8 -7 -7 -8 -8 -8 -9 -8
-7 -7 -7 -6 -6 -6 -6 -6 -6 -6 -6 -6 -6 -6 -6 -6 -6 -6 -7 -7 -7 -7 -7 -7 -7 -6 -6 -6 -6 -7 -7 -8 -9 -9 -9 -9 -9 -9 -8 -7 -8 -8 -9 -9 -9
-7 -7 -7 -7 -6 -6 -6 -6 -6 -6 -6 -6 -6 -6 -6 -6 -6 -6 -7 -7 -7 -7 -7 -7 -7 -7 -7 -7 -7 -7 -8 -8 -9 -9 -9 -9 -9 -8 -8 -8 -8 -8 -8 -9 -9
-7 -7 -7 -7 -7 -6 -6 -6 -6 -6 -6 -6 -6 -6 -6 -6 -7 -7 -7 -7 -7 -7 -7 -7 -7 -7 -7 -7 -7 -7 -7 -7 -8 -7 -8 -8 -8 -8 -8 -8 -9 -9 -8 -8 -8
-7 -7 -7 -7 -7 -6 -6 -6 -6 -7 -7 -7 -7 -7 -7 -7 -7 -7 -7 -7 -7 -7 -7 -7 -7 -7 -7 -7 -7 -7 -7 -7 -7 -7 -7 -7 -8 -8 -8 -9 -9 -9 -8 -8 -8
-7 -7 -7 -7 -7 -7 -7 -7 -7 -7 -7 -7 -7 -7 -7 -7 -7 -7 -7 -7 -7 -7 -7 -7 -7 -7 -7 -7 -7 -7 -7 -7 -8 -8 -8 -8 -8 -8 -9 -8 -8 -9 -9 -9 -8
-7 -7 -7 -7 -7 -7 -7 -7 -7 -7 -7 -7 -8 -7 -7 -7 -7 -7 -7 -7 -7 -7 -7 -7 -7 -7 -7 -7 -7 -7 -7 -7 -7 -8 -8 -7 -7 -8 -8 -7 -7 -8 -8 -9 -8
-8 -7 -7 -7 -7 -7 -7 -7 -7 -7 -8 -8 -8 -8 -8 -8 -8 -8 -7 -8 -8 -7 -7 -7 -7 -7 -7 -7 -7 -7 -7 -7 -7 -7 -7 -6 -7 -8 -8 -7 -7 -8 -8 -8 -8
-8 -8 -7 -7 -7 -7 -7 -7 -7 -7 -8 -8 -8 -8 -8 -8 -8 -8 -8 -8 -8 -7 -7 -7 -7 -7 -7 -7 -7 -7 -7 -7 -7 -7 -7 -7 -7 -8 -8 -8 -8 -8 -8 -8 -8
-8 -8 -8 -7 -7 -7 -7 -7 -7 -7 -7 -7 -8 -8 -8 -8 -8 -8 -8 -8 -7 -7 -7 -7 -7 -7 -7 -7 -7 -7 -7 -7 -7 -8 -7 -7 -7 -7 -8 -8 -8 -8 -8 -8 -8
-8 -8 -8 -7 -7 -7 -7 -7 -7 -7 -7 -7 -7 -7 -7 -8 -8 -8 -8 -7 -7 -7 -7 -7 -7 -7 -7 -7 -7 -7 -7 -7 -7 -8 -7 -8 -8 -9 -8 -8 -8 -9 -9 -9 -9
-8 -8 -8 -8 -8 -7 -7 -7 -7 -7 -7 -7 -7 -7 -7 -7 -7 -7 -7 -8 -7 -7 -7 -7 -7 -7 -7 -7 -7 -7 -7 -7 -8 -8 -8 -8 -9 -9 -9 -10 -10 -9 -10 -9 -9
-8 -8 -8 -8 -7 -7 -7 -7 -7 -7 -7 -7 -7 -7 -7 -7 -8 -7 -7 -7 -7 -7 -7 -7 -8 -7 -8 -7 -7 -7 -7 -8 -7 -8 -8 -8 -8 -9 -10 -10 -10 -10 -10 -11 -10
-9 -8 -8 -8 -8 -8 -7 -7 -7 -7 -7 -7 -7 -7 -7 -7 -7 -7 -8 -7 -7 -8 -7 -8 -8 -8 -7 -8 -8 -7 -8 -8 -8 -8 -8 -8 -8 -9 -9 -10 -10 -11 -11 -11 -11
-8 -8 -8 -8 -8 -8 -8 -8 -8 -8 -7 -7 -7 -7 -7 -7 -7 -7 -8 -8 -8 -8 -7 -8 -8 -8 -8 -8 -8 -7 -8 -8 -8 -8 -8 -8 -8 -8 -9 -10 -10 -11 -10 -11 -11
-9 -9 -9 -8 -8 -8 -8 -8 -8 -8 -8 -8 -8 -8 -8 -8 -8 -8 -8 -8 -8 -8 -8 -8 -8 -8 -9 -9 -8 -8 -9 -9 -9 -9 -9 -9 -9 -9 -9 -9 -10 -11 -12 -11 -12
-9 -9 -9 -9 -9 -9 -9 -9 -9 -9 -8 -8 -8 -8 -8 -8 -8 -8 -8 -8 -8 -8 -8 -9 -9 -9 -9 -9 -9 -9 -9 -9 -10 -10 -10 -10 -10 -9 -9 -10 -10 -11 -12 -12 -12
-9 -9 -9 -9 -9 -9 -9 -9 -9 -9 -9 -9 -8 -8 -8 -8 -9 -9 -9 -9 -9 -9 -9 -9 -9 -9 -9 -9 -10 -10 -10 -11 -10 -10 -10 -11 -10 -10 -11 -11 -11 -12 -12 -12 -12
-9 -9 -9 -9 -9 -9 -9 -9 -9 -9 -9 -9 -9 -9 -9 -9 -9 -9 -9 -9 -9 -9 -9 -9 -9 -9 -10 -10 -11 -11 -11 -11 -11 -11 -11 -11 -11 -11 -12 -12 -12 -12 -13 -12 -13
-9 -10 -10 -9 -9 -10 -10 -10 -10 -9 -10 -10 -10 -10 -10 -10 -10 -10 -10 -10 -10 -10 -10 -10 -10 -10 -11 -11 -11 -12 -11 -11 -12 -12 -11 -11 -11 -11 -12 -12 -12 -13 -13 -13 -13
-10 -10 -10 -10 -10 -10 -10 -10 -11 -10 -10 -11 -11 -11 -11 -11 -11 -11 -11 -12 -11 -11 -11 -11 -12 -12 -12 -12 -12 -12 -12 -12 -13 -12 -12 -11 -11 -12 -12 -13 -13 -13 -14 -13 -13
-11 -11 -11 -11 -11 -11 -11 -11 -11 -11 -11 -11 -11 -11 -12 -12 -12 -12 -12 -13 -12 -12 -12 -12 -12 -12 -13 -13 -13 -13 -13 -13 -13 -13 -13 -12 -11 -13 -13 -13 -14 -14 -14 -14 -14
-12 -12 -11 -11 -11 -11 -12 -12 -12 -12 -12 -12 -12 -12 -12 -12 -12 -12 -12 -12 -13 -13 -13 -13 -13 -13 -13 -13 -13 -13 -14 -14 -13 -14 -13 -13 -12 -13 -13 -14 -14 -14 -14 -14 -14
-11 -12 -12 -12 -12 -12 -12 -12 -12 -12 -12 -12 -12 -13 -12 -12 -13 -12 -12 -13 -13 -13 -13 -13 -13 -13 -13 -14 -14 -14 -14 -14 -14 -14 -14 -13 -13 -13 -14 -14 -14 -14 -14 -15 -15
-12 -12 -12 -12 -12 -12 -12 -13 -13 -13 -13 -13 -13 -12 -13 -13 -13 -14 -13 -13 -14 -14 -14 -14 -14 -14 -14 -14 -14 -14 -14 -14 -14 -14 -14 -13 -13 -14 -14 -14 -15 -15 -15 -15 -15
-12 -12 -12 -12 -12 -13 -13 -12 -12 -13 -13 -14 -14 -14 -14 -13 -13 -13 -13 -14 -14 -14 -15 -15 -14 -15 -14 -14 -14 -14 -14 -15 -14 -15 -15 -14 -14 -14 -14 -15 -16 -16 -15 -15 -15
-12 -12 -12 -12 -13 -13 -13 -13 -13 -13 -14 -14 -14 -14 -15 -14 -15 -14 -14 -14 -14 -14 -15 -15 -15 -15 -15 -15 -15 -14 -14 -15 -16 -16 -15 -14 -15 -14 -15 -15 -16 -16 -16 -17 -17
Height
5881 5882 5883 5883 5884 5885 5886 5886 5887 5887 5888 5888 5888 5888 5888 5889 5889 5890 5891 5892 5892 5893 5893 5894 5896 5897 5898 5900 5902 5905 5907 5909 5910 5910 5911 5911 5909 5908 5906 5909 5909 5911 5913 5914 5913
5880 5880 5881 5882 5883 5883 5884 5885 5886 5886 5887 5887 5887 5888 5888 5888 5889 5889 5891 5891 5891 5892 5892 5894 5896 5897 5898 5899 5902 5904 5906 5907 5908 5907 5908 5909 5908 5906 5907 5908 5908 5909 5910 5909 5910
5879 5879 5880 5881 5881 5882 5883 5884 5885 5885 5886 5886 5886 5886 5886 5887 5888 5888 5889 5890 5891 5891 5892 5893 5895 5896 5897 5898 5900 5902 5903 5902 5905 5904 5904 5906 5906 5906 5904 5905 5904 5904 5906 5907 5909
5878 5878 5879 5880 5880 5881 5882 5882 5883 5884 5884 5885 5884 5884 5885 5886 5888 5887 5888 5889 5890 5891 5892 5892 5893 5894 5895 5896 5898 5900 5901 5901 5901 5901 5902 5903 5905 5905 5906 5903 5901 5901 5902 5902 5903
5876 5876 5877 5878 5878 5878 5879 5880 5881 5881 5882 5883 5883 5883 5883 5884 5885 5885 5886 5887 5888 5889 5890 5890 5892 5894 5895 5895 5897 5898 5900 5901 5901 5902 5902 5902 5903 5904 5903 5902 5899 5897 5896 5896 5897
5874 5874 5874 5875 5875 5876 5876 5877 5878 5879 5880 5880 5881 5880 5881 5882 5882 5883 5884 5885 5886 5887 5888 5890 5891 5892 5893 5894 5895 5896 5898 5899 5900 5901 5901 5901 5900 5900 5902 5897 5895 5893 5894 5888 5890
5872 5872 5872 5872 5872 5873 5874 5875 5876 5877 5878 5878 5878 5878 5879 5881 5880 5881 5882 5883 5884 5885 5886 5888 5889 5890 5891 5892 5894 5895 5896 5896 5894 5895 5895 5894 5896 5897 5893 5891 5890 5889 5889 5886 5885
5870 5870 5870 5870 5870 5870 5871 5872 5874 5875 5876 5876 5877 5877 5879 5878 5879 5880 5881 5882 5883 5884 5885 5887 5888 5889 5889 5890 5891 5892 5894 5893 5893 5892 5890 5890 5892 5889 5885 5886 5886 5885 5885 5882 5881
5869 5869 5868 5868 5868 5869 5870 5871 5872 5873 5874 5875 5876 5877 5878 5878 5879 5879 5879 5881 5881 5882 5883 5885 5886 5886 5887 5887 5887 5887 5888 5888 5887 5887 5886 5887 5886 5885 5880 5878 5879 5880 5880 5879 5877
5869 5868 5868 5868 5868 5868 5868 5869 5870 5871 5872 5873 5874 5877 5877 5877 5877 5877 5878 5879 5879 5879 5880 5880 5881 5882 5881 5881 5882 5881 5881 5882 5883 5881 5879 5879 5879 5877 5876 5875 5873 5875 5876 5876 5874
5868 5868 5868 5868 5868 5868 5869 5869 5871 5872 5871 5872 5873 5873 5873 5875 5875 5875 5874 5875 5876 5876 5875 5875 5877 5877 5873 5874 5875 5874 5874 5874 5875 5875 5871 5872 5871 5869 5870 5869 5870 5868 5871 5871 5868
5867 5867 5867 5867 5867 5867 5867 5868 5868 5869 5869 5869 5870 5870 5871 5871 5871 5871 5871 5871 5871 5870 5870 5871 5871 5868 5868 5868 5868 5867 5867 5867 5866 5866 5864 5864 5862 5862 5861 5861 5861 5862 5862 5862 5862
5865 5865 5865 5865 5865 5865 5864 5865 5864 5865 5865 5866 5866 5865 5867 5868 5867 5866 5867 5866 5866 5865 5865 5866 5863 5863 5863 5862 5861 5861 5861 5860 5858 5860 5858 5857 5856 5855 5854 5853 5854 5853 5853 5852 5852
5861 5861 5861 5861 5863 5860 5861 5861 5861 5861 5861 5862 5862 5861 5862 5862 5862 5861 5861 5861 5861 5859 5858 5861 5856 5857 5856 5856 5854 5855 5854 5852 5851 5851 5851 5851 5848 5849 5849 5846 5845 5848 5846 5844 5844
5857 5857 5856 5857 5857 5856 5857 5856 5856 5856 5855 5857 5856 5856 5856 5857 5857 5855 5855 5854 5853 5852 5853 5854 5851 5850 5850 5850 5847 5848 5848 5845 5844 5843 5843 5842 5840 5838 5841 5839 5838 5838 5839 5838 5835
5851 5851 5851 5851 5850 5851 5851 5850 5850 5851 5848 5849 5849 5849 5850 5849 5848 5848 5848 5848 5847 5845 5845 5847 5844 5844 5843 5841 5841 5841 5841 5838 5836 5835 5832 5833 5832 5828 5830 5829 5829 5830 5830 5829 5827
5845 5844 5844 5844 5844 5844 5843 5843 5844 5841 5841 5841 5843 5843 5844 5843 5841 5840 5840 5840 5840 5838 5838 5837 5837 5836 5833 5834 5834 5834 5832 5830 5827 5826 5825 5823 5821 5821 5819 5819 5819 5818 5818 5819 5817
5838 5836 5835 5835 5836 5836 5836 5836 5836 5833 5831 5832 5834 5834 5834 5835 5834 5831 5831 5831 5831 5829 5828 5828 5830 5829 5825 5824 5826 5825 5824 5821 5816 5816 5816 5815 5811 5811 5810 5810 5809 5806 5805 5807 5808
5832 5829 5828 5827 5827 5826 5827 5826 5825 5823 5823 5822 5822 5824 5824 5824 5826 5824 5820 5819 5818 5819 5818 5817 5818 5818 5818 5817 5817 5816 5815 5814 5809 5807 5804 5804 5803 5803 5801 5800 5798 5796 5794 5794 5795
5823 5822 5820 5818 5817 5817 5817 5816 5813 5814 5814 5815 5813 5812 5811 5811 5812 5813 5813 5810 5808 5807 5806 5805 5806 5807 5806 5807 5806 5807 5806 5803 5801 5797 5794 5792 5791 5791 5791 5789 5786 5785 5783 5781 5782
5815 5813 5811 5809 5808 5807 5806 5805 5804 5802 5803 5804 5804 5802 5801 5801 5800 5800 5799 5800 5798 5798 5797 5796 5795 5795 5794 5794 5793 5793 5793 5791 5790 5788 5785 5783 5784 5782 5782 5780 5777 5776 5775 5773 5771
5806 5805 5803 5800 5799 5797 5796 5795 5793 5792 5789 5790 5790 5790 5789 5789 5789 5788 5788 5788 5787 5786 5784 5783 5782 5782 5784 5783 5784 5784 5783 5783 5780 5778 5774 5772 5773 5773 5772 5769 5766 5764 5763 5761 5761
5798 5795 5794 5792 5789 5787 5786 5784 5782 5781 5779 5775 5775 5778 5777 5776 5776 5777 5778 5779 5776 5775 5772 5772 5769 5769 5769 5772 5773 5772 5772 5772 5770 5767 5765 5766 5766 5762 5760 5759 5757 5756 5753 5751 5751
5792 5788 5784 5781 5779 5777 5775 5772 5770 5767 5766 5765 5764 5761 5762 5763 5763 5762 5763 5765 5765 5764 5763 5759 5759 5758 5760 5761 5758 5757 5758 5757 5755 5754 5757 5754 5755 5752 5750 5749 5747 5746 5743 5742 5742
5779 5776 5773 5770 5766 5763 5762 5760 5758 5755 5753 5751 5749 5748 5748 5748 5748 5747 5747 5748 5750 5751 5748 5746 5746 5746 5748 5747 5745 5746 5745 5742 5740 5742 5740 5744 5741 5741 5740 5738 5738 5736 5733 5732 5732
5767 5764 5762 5759 5755 5752 5746 5744 5743 5742 5741 5738 5735 5734 5732 5731 5730 5730 5732 5733 5734 5735 5734 5733 5733 5732 5733 5734 5733 5734 5733 5731 5732 5731 5731 5731 5731 5731 5729 5728 5728 5726 5724 5722 5722
5754 5751 5747 5744 5739 5736 5733 5730 5726 5724 5722 5719 5719 5717 5715 5713 5712 5713 5714 5716 5718 5716 5716 5717 5718 5718 5721 5720 5718 5718 5724 5723 5721 5720 5720 5719 5720 5718 5718 5718 5718 5716 5715 5712 5710
Wind_Speed
8 9 9 8 8 8 8 8 8 7 7 7 6 6 5 4 4 6 9 10 9 9 9 9 9 10 11 10 9 10 18 30 25 20 20 16 19 23 28 24 24 24 22 19 21
5 7 8 9 8 8 8 8 8 8 7 8 8 8 7 6 6 6 6 7 8 9 8 5 5 6 7 9 9 9 12 25 30 26 23 23 24 29 30 32 29 23 13 18 21
3 4 5 7 7 7 7 7 7 7 8 8 9 9 9 9 9 8 9 8 8 7 7 7 6 7 6 6 7 10 14 24 34 34 32 29 29 31 32 31 33 22 15 18 20
8 7 7 7 7 7 7 8 8 9 9 10 10 10 10 10 10 10 10 10 10 8 8 6 8 9 10 9 8 10 17 21 28 29 33 32 33 30 24 30 29 26 21 21 23
11 12 11 11 11 10 10 11 11 11 11 11 11 12 12 11 12 11 12 11 11 10 11 10 10 8 7 5 5 8 9 9 18 20 20 20 22 26 28 30 27 31 25 24 27
11 12 13 13 13 12 12 13 13 13 12 12 13 13 12 13 13 13 13 12 11 11 10 9 8 9 8 7 7 8 8 8 10 14 15 17 18 17 22 25 23 25 27 31 29
10 11 12 13 14 14 14 14 13 13 12 12 12 13 12 10 10 10 11 11 11 9 8 8 8 8 6 5 5 7 6 7 13 16 18 20 17 16 27 28 26 25 25 29 31
8 9 10 11 12 12 12 12 12 12 12 12 13 12 11 13 12 11 11 11 11 11 11 10 8 9 8 8 8 10 10 14 16 18 20 19 16 22 27 26 26 27 27 31 33
6 7 8 9 10 11 11 11 11 12 12 14 15 14 14 14 12 14 14 14 14 15 16 14 14 15 15 15 16 19 20 22 24 23 24 24 26 24 28 29 29 30 29 29 31
4 4 5 6 6 7 9 10 11 11 12 14 16 17 16 16 15 17 16 17 17 17 19 20 20 21 23 24 22 26 27 26 24 27 30 30 29 31 29 32 34 33 32 31 32
5 5 5 5 6 7 8 8 9 8 11 13 15 16 17 20 21 20 20 20 20 21 24 24 21 21 28 26 26 28 29 29 28 26 33 33 33 35 34 36 34 33 33 32 34
9 8 7 7 6 6 7 8 9 11 12 13 15 15 16 18 20 22 22 23 22 24 25 23 20 26 25 25 26 27 28 27 28 28 32 33 37 36 34 35 37 37 36 37 36
13 12 11 10 9 9 10 10 11 12 13 12 15 18 16 16 20 23 21 22 22 23 25 24 27 26 25 26 27 28 28 28 30 28 31 33 34 33 33 36 37 40 41 42 44
18 18 17 16 15 15 14 13 14 14 15 18 17 19 19 19 20 22 22 25 24 27 28 21 28 26 26 26 28 28 29 32 32 33 33 31 36 30 28 31 36 40 43 47 49
21 22 23 20 21 21 19 19 18 20 22 23 23 22 23 24 24 26 26 26 28 30 29 24 27 28 29 27 31 31 31 34 36 37 35 35 36 35 28 25 28 35 39 50 53
25 25 26 26 25 26 24 24 24 25 28 27 26 26 26 28 27 28 30 31 32 32 33 29 32 32 31 32 33 32 32 34 36 36 37 38 38 38 34 32 29 28 28 38 46
25 29 29 28 29 27 28 28 29 30 32 32 30 30 30 31 31 32 33 33 32 34 34 33 32 33 36 35 34 33 33 35 37 36 38 38 41 39 37 36 35 34 32 33 39
23 26 30 33 32 32 31 31 32 35 37 36 35 35 36 34 33 34 35 36 35 37 38 39 36 33 37 38 35 34 33 35 40 40 39 37 42 40 39 37 37 40 40 39 39
25 26 28 30 32 33 34 34 35 38 39 40 40 40 40 38 35 37 38 40 40 41 43 43 41 39 36 37 35 35 35 35 39 42 43 43 42 41 39 38 39 41 42 44 45
28 27 28 29 30 32 34 36 39 40 40 39 40 42 42 41 41 39 39 42 44 45 46 46 44 43 41 39 38 36 37 37 38 43 46 46 45 44 42 39 41 39 43 44 45
28 29 28 30 31 32 33 35 35 41 41 39 39 41 43 43 43 42 43 43 45 46 47 47 47 46 44 43 41 40 40 41 42 45 47 47 46 46 43 41 43 42 42 43 47
26 26 26 27 29 31 33 35 38 39 44 43 43 42 44 45 45 46 47 48 48 48 49 49 50 49 46 46 45 44 43 43 45 48 49 50 50 46 44 44 44 43 42 42 42
27 30 29 31 32 32 31 32 34 36 41 47 47 45 46 48 50 50 50 49 50 50 50 50 53 52 52 50 48 48 48 47 47 49 48 47 48 47 45 42 42 42 42 42 40
32 32 35 35 35 34 33 34 35 38 39 41 42 45 46 47 49 51 52 50 49 49 50 52 53 53 52 50 51 50 49 49 49 49 44 46 44 44 44 42 41 39 42 39 34
36 36 35 36 39 40 39 38 39 41 42 42 43 44 45 46 47 48 49 49 48 47 48 50 54 52 50 50 50 50 50 50 50 48 49 44 45 42 40 41 37 37 39 37 32
41 41 41 42 43 43 45 45 45 45 44 44 48 48 49 49 49 47 47 47 48 49 50 50 51 52 50 50 52 52 52 50 50 47 45 43 45 42 43 40 33 34 37 35 32
49 49 50 49 49 49 50 52 53 52 51 52 50 50 52 54 53 53 51 50 49 50 51 52 52 52 51 52 53 55 49 45 42 42 42 43 41 44 43 39 33 31 32 35 35
Wind_Direction
220 220 223 227 227 223 220 218 219 217 216 209 211 211 208 195 183 193 199 208 207 205 209 215 222 225 224 225 215 185 190 192 186 202 213 213 234 251 269 272 262 263 284 300 304
218 223 223 225 222 218 215 217 220 221 218 210 210 212 213 208 200 191 200 206 203 212 209 209 217 232 235 233 222 200 186 195 197 206 218 226 236 255 265 273 276 269 280 300 307
219 210 214 211 208 209 210 213 219 220 216 216 217 216 211 211 212 207 198 204 210 208 206 194 203 209 202 224 215 201 189 201 203 212 224 230 244 255 272 294 296 277 285 294 293
247 243 234 231 219 215 219 221 226 227 222 216 215 215 217 215 213 215 211 207 216 215 214 195 210 213 207 212 205 206 212 217 220 231 237 241 247 262 266 298 296 292 296 295 294
246 245 244 240 238 236 236 235 233 231 226 223 223 225 223 220 219 216 214 214 219 220 221 213 223 226 233 224 220 229 234 240 243 258 257 267 270 270 266 287 291 285 294 293 292
247 245 244 241 239 237 237 236 236 234 230 228 229 231 227 221 220 218 216 210 210 219 221 224 226 228 223 209 213 239 239 233 248 262 269 266 256 257 270 268 273 280 285 289 294
251 248 247 245 242 238 237 237 235 232 228 226 225 225 219 211 199 194 193 197 203 203 183 176 180 189 193 198 206 199 213 210 225 230 230 238 248 254 253 265 272 273 279 281 287
255 250 246 246 244 239 235 233 231 227 225 221 212 205 186 188 181 179 181 180 188 195 201 202 208 226 236 234 236 246 231 235 238 245 254 266 251 246 255 264 267 266 268 274 281
258 254 246 243 239 232 230 224 222 221 218 210 202 196 197 200 193 201 201 202 215 222 230 231 236 248 253 255 256 254 251 248 257 255 256 258 266 254 255 260 262 264 263 267 275
240 240 234 226 219 215 208 205 203 203 206 207 203 204 205 214 220 227 220 227 235 243 250 252 253 259 265 263 260 266 269 267 261 270 269 272 271 270 255 262 267 266 268 271 268
257 246 246 231 218 215 211 205 208 209 209 208 212 212 215 217 224 236 245 251 247 255 260 261 264 266 263 270 271 271 272 274 273 260 272 273 271 271 274 272 263 264 258 266 265
256 258 256 253 247 239 231 226 225 222 222 215 226 231 223 231 237 241 246 249 257 260 265 268 267 262 267 269 270 272 274 275 271 269 269 268 265 265 268 270 272 272 271 270 268
260 253 255 251 250 246 245 246 239 239 238 236 241 252 252 250 250 252 254 256 257 262 263 265 265 267 268 271 276 278 280 277 278 270 272 275 273 272 267 268 264 271 274 273 273
262 262 254 256 255 252 251 253 256 253 249 252 251 259 261 258 258 259 258 261 263 264 266 264 262 265 269 273 275 276 281 280 278 277 277 271 277 272 268 269 267 260 263 269 275
263 259 265 257 256 256 254 254 256 257 257 254 255 255 258 259 260 260 264 264 264 266 268 265 266 267 270 272 271 278 275 277 280 281 282 281 282 285 280 271 264 264 264 257 261
270 266 260 262 261 259 259 259 259 260 258 257 257 258 259 262 264 267 265 263 263 265 267 266 267 270 269 267 273 280 281 280 279 276 276 282 284 284 286 286 277 270 271 267 264
277 268 267 265 265 263 261 260 261 261 262 259 259 263 262 264 263 262 265 264 264 267 270 266 265 269 271 273 275 278 278 277 273 274 282 283 282 285 288 289 291 285 274 269 266
284 278 269 266 266 265 265 263 263 262 263 263 263 262 263 261 266 269 267 267 267 266 264 265 264 266 272 276 280 279 279 275 276 279 279 277 280 284 286 288 287 286 283 279 268
287 280 277 273 267 265 264 264 262 260 263 265 267 267 268 269 268 269 272 271 270 270 271 272 274 275 272 275 276 276 275 274 275 279 282 284 284 283 284 286 282 280 280 279 275
288 285 283 278 273 270 267 266 264 265 266 267 270 271 272 272 270 267 265 267 269 272 274 276 278 277 277 276 275 274 276 276 277 281 283 286 286 287 288 286 283 285 288 286 277
289 286 284 279 277 275 273 269 267 267 266 263 262 265 268 268 270 270 268 267 267 270 271 274 274 277 277 279 279 280 281 282 284 283 285 285 285 285 287 285 285 284 282 280 281
297 291 289 288 284 279 275 272 270 267 268 264 261 258 259 261 261 261 262 263 266 266 267 269 271 271 273 275 275 277 278 279 280 283 281 284 288 287 288 285 286 285 286 284 284
293 294 292 290 287 285 282 278 274 270 267 269 268 266 264 261 261 263 264 265 265 264 265 267 268 271 273 276 279 280 279 278 278 277 278 283 286 289 285 283 282 283 285 286 286
292 290 290 288 284 282 282 281 277 274 273 274 275 272 269 267 267 267 266 263 264 267 267 266 267 270 274 276 275 277 280 280 279 278 282 280 282 282 281 282 284 287 286 288 289
297 295 294 294 290 286 280 276 275 277 277 275 272 272 272 270 268 267 268 268 265 262 263 265 266 268 269 271 272 275 277 277 278 282 280 284 283 281 281 279 283 284 283 283 282
302 300 297 295 293 291 289 286 282 277 274 270 272 273 273 270 268 268 268 269 267 264 262 261 263 265 266 267 268 269 270 271 274 277 280 280 280 281 280 282 282 278 280 281 282
299 296 294 294 292 289 287 284 282 282 280 277 272 268 267 267 267 267 267 265 264 265 264 263 264 263 265 266 267 267 271 272 273 272 274 275 280 281 281 281 281 278 277 278 280